Location: East Fork Observatory
(32.9757°N, 94.4485°W)
Time: 12:41:09
(UTC-06:00)

Hubble Space Telescope - Pass Details

Date: 29 October 2019
Orbit: 536 x 540 km, 28.5° (Epoch: 16 November)

Event Time Altitude Azimuth Distance (km) Brightness Sun altitude
Exits shadow 06:03:28 17° 203° (SSW) 1,380 2.6 -19.3°
Maximum altitude 06:05:27 24° 163° (SSE) 1,112 2.6 -18.9°
Drops below altitude 10° 06:08:49 10° 108° (ESE) 1,778 4.6 -18.2°
Sets 06:11:22 0° 95° (E) 2,669 6.1 -17.7°
